Zurück zum Katalog

COSMOS 2251 DEB

AktivLEO
NORAD 34637·DEBRIS·🇷🇺 Russia

Gestartet Jun 16, 1993 von Plesetsk Cosmodrome

Loading…

Nächste Überflüge (nächste 24 Stunden)

TLE

AktuellSource: Space-Track

Epoche: Sep 14, 2026, 13:14 UTC

1 34637U 93036XJ  26257.55149635  .00001653  00000-0  33026-3 0  9996
2 34637  74.0475 294.2440 0051533 292.4479 218.7600 14.61925872925556

Verfolge COSMOS 2251 DEB in Echtzeit mit AllMySat

Download on the App Store